User: anonymous   Login
Location: Darlington Observatory
(36.4817°N, 105.8156°W)
Time: 06:18:50
(UTC-07:00)
Language:

Cosmos 2278 Rocket - Orbit

View from above orbital plane
View from above orbital plane
View from above satellite
View from above satellite

Ground track
Ground track

The orbit data is extracted from the following two-line orbital elements,

1 23088U 94023B   17327.15745028 -.00000264  00000-0 -11222-3 0  9996
2 23088  70.9978 308.3998 0005330 239.4239 120.6358 14.14658680218027
Epoch (UTC): 23 November 2017 03:46:43
Eccentricity: 0.0005330
inclination: 70.9978°
perigee height: 839 km
apogee height: 847 km
right ascension of ascending node: 308.3998°
argument of perigee: 239.4239°
revolutions per day: 14.14658680
mean anomaly at epoch: 120.6358°
orbit number at epoch: 21802

The dashed part of the orbit path shows where the satellite is in the earth's shadow,  

DLR